Weather Roundup
Issued by NWS Chicago, IL

Home | Current Version | Previous Version | Text Only | Print | Product List | Glossary Off
Versions: 1 2 3 4 5 6 7 8 9 10 11 12 13 14 15 16 17 18 19 20 21 22 23 24 25 26 27 28 29 30 31 32 33 34 35 36 37 38 39 40 41 42 43 44 45 46 47 48 49 50

000
NZUS59 KLOT 222006
HRRLOT

CHICAGO AREA WEATHER ROUNDUP
NATIONAL WEATHER SERVICE CHICAGO/ROMEOVILLE IL
300 PM CDT WED OCT 22 2014

NOTE: "FAIR" INDICATES FEW OR NO CLOUDS BELOW 12,000 FEET WITH NO
SIGNIFICANT WEATHER AND/OR OBSTRUCTIONS TO VISIBILITY.

* THESE STATIONS ARE NOT UNDER NWS QUALITY CONTROL. THEY ALSO MAY NOT
  REPORT WEATHER SUCH AS PRECIPITATION OR FOG.

ILZ005-006-012>014-019>023-222100-
NORTHEAST ILLINOIS

CITY           SKY/WX    TMP DP  RH WIND       PRES   REMARKS
OHARE          MOSUNNY   55  38  52 VRB6      30.30F
MIDWAY         MOSUNNY   55  37  50 NE8       30.31F
AURORA         SUNNY     59  38  45 SE7       30.30F
LANSING*       SUNNY     54  34  48 NE8       30.31F
JOLIET*        SUNNY     56  38  51 CALM      30.30F
WAUKEGAN       SUNNY     50  39  66 E7        30.31F
DUPAGE AIRPORT SUNNY     59  38  45 S5        30.29F
WHEELING       SUNNY     56  40  55 E8        30.33S
KANKAKEE*      SUNNY     57  37  46 NE6       30.30F
MORRIS*        SUNNY     59  40  49 SE5       30.29F
LEWIS AIRPORT* SUNNY     56  35  46 CALM      30.30F
NORTHERLY IS     N/A     50  37  61 NE7         N/A
$$

WIZ051-052-058>065-066-070>072-222100-
SOUTHEAST WISCONSIN

CITY           SKY/WX    TMP DP  RH WIND       PRES   REMARKS
MILWAUKEE      MOSUNNY   51  39  63 E9        30.32F
KENOSHA*       SUNNY     53  40  61 E7        30.32F
RACINE*        SUNNY     51  39  63 SE7       30.34F
BURLINGTON     SUNNY     56  37  50 SE6       30.30F
WAUKESHA       SUNNY     54  39  58 E5        30.31F
WEST BEND      SUNNY     54  36  50 SE7       30.30F
$$

INZ001>003-010>013-019-020-222100-
NORTHWEST INDIANA

CITY           SKY/WX    TMP DP  RH WIND       PRES   REMARKS
GARY*          SUNNY     54  36  50 NE9       30.33F
MICHIGAN CITY* NOT AVBL
RENSSELAER*    NOT AVBL
VALPARAISO     SUNNY     55  34  45 N9        30.30F
$$

LMZ740>746-222100-
SOUTHERN LAKE MICHIGAN

STATION/POSITION TIME  SKY/WX   TEMP WIND        PRES    VSBY
                                AIR  DIR/SP/G
                 (UTC)          (F)  (DEG/KT/KT) (MB)    (MI)
HARRISON CRIB    1900            47   80/  5/  6   N/A
BURNHAM HARBOR   2000            50   60/  6/  7   N/A
CALUMET HARBOR   2000            49   20/  6/  8 1025.6F
BURNS HARBOR     NOT AVBL
MICHIGAN CITY    2000            49  340/ 10/ 12   N/A
$$

ABBREVIATIONS USED IN REMARKS
   TC - TEMPERATURE IN CELSIUS
  WCI - WIND CHILL INDEX
   HX - HEAT INDEX
  VSB - VISIBILITY
$$



USA.gov is the U.S. government's official web portal to all federal, state and local government web resources and services.